When you browse on this site, cookies collect data to enhance your experience and personalize the content and advertising you see.
Visit our Privacy Policy to learn more. By continuing to use the site, you agree to this use of cookies and data.
  • In France
  • List of Countries
  • For 7 days
  • Water Temperature
  • Satellite Maps
  • Weather Map
  • Weather Widgets
  • user-avatar
    Login

    Hourly Weather Giumri

    Today, 19 February, Tuesday

    Time Temperature Precipitation Wind Pressure Humidity
    00:00 -7°C° 0 mm 2 mps 626 mmHg 80%
    01:00 -7°C° 0 mm 2 mps 627 mmHg 80%
    02:00 -7°C° 0 mm 2 mps 627 mmHg 80%
    03:00 -7°C° 0 mm 2 mps 626 mmHg 79%
    04:00 -8°C° 0 mm 2 mps 627 mmHg 78%
    05:00 -8°C° 0 mm 2 mps 627 mmHg 78%
    06:00 -8°C° 0 mm 2 mps 628 mmHg 77%
    07:00 -7°C° 0 mm 2 mps 628 mmHg 76%
    08:00 -7°C° 0 mm 2 mps 629 mmHg 74%
    09:00 -6°C° 0 mm 2 mps 629 mmHg 73%
    10:00 -6°C° 0 mm 3 mps 629 mmHg 70%
    11:00 -5°C° 0 mm 3 mps 630 mmHg 66%
    12:00 -4°C° 0 mm 4 mps 630 mmHg 63%
    13:00 -4°C° 0 mm 3 mps 630 mmHg 63%
    14:00 -4°C° 0 mm 3 mps 631 mmHg 64%
    15:00 -4°C° 0 mm 3 mps 631 mmHg 64%
    16:00 -5°C° 0 mm 3 mps 631 mmHg 66%
    17:00 -6°C° 0 mm 2 mps 631 mmHg 68%
    18:00 -8°C° 0 mm 2 mps 631 mmHg 70%
    19:00 -8°C° 0 mm 2 mps 632 mmHg 69%
    20:00 -9°C° 0 mm 2 mps 632 mmHg 68%
    21:00 -9°C° 0 mm 2 mps 632 mmHg 67%
    22:00 -9°C° 0 mm 2 mps 633 mmHg 65%
    23:00 -9°C° 0 mm 2 mps 633 mmHg 62%

    Tomorrow, 20 February, Wednesday

    Time Temperature Precipitation Wind Pressure Humidity
    00:00 -8°C° 0 mm 1 mps 633 mmHg 60%
    01:00 -8°C° 0 mm 1 mps 633 mmHg 57%
    02:00 -8°C° 0 mm 1 mps 633 mmHg 55%
    03:00 -8°C° 0 mm 1 mps 633 mmHg 52%
    04:00 -8°C° 0 mm 1 mps 633 mmHg 51%
    05:00 -8°C° 0 mm 1 mps 633 mmHg 50%
    06:00 -9°C° 0 mm 1 mps 633 mmHg 48%
    07:00 -7°C° 0 mm 1 mps 633 mmHg 49%
    08:00 -6°C° 0 mm 1 mps 634 mmHg 49%
    09:00 -4°C° 0 mm 1 mps 634 mmHg 50%
    10:00 -3°C° 0 mm 1 mps 634 mmHg 50%
    11:00 -1°C° 0 mm 1 mps 634 mmHg 50%
    12:00 +1°C° 0 mm 1 mps 635 mmHg 51%
    13:00 +1°C° 0 mm 1 mps 634 mmHg 52%
    14:00 +1°C° 0 mm 1 mps 634 mmHg 52%
    15:00 +1°C° 0 mm 1 mps 634 mmHg 53%
    16:00 -1°C° 0 mm 1 mps 633 mmHg 52%
    17:00 -2°C° 0 mm 1 mps 633 mmHg 52%
    18:00 -4°C° 0 mm 1 mps 633 mmHg 51%
    19:00 -4°C° 0 mm 1 mps 633 mmHg 50%
    20:00 -6°C° 0 mm 1 mps 633 mmHg 49%
    21:00 -6°C° 0 mm 1 mps 633 mmHg 48%
    22:00 -7°C° 0 mm 1 mps 633 mmHg 49%
    23:00 -7°C° 0 mm 1 mps 633 mmHg 49%

    Day after tomorrow, 21 February, Thursday

    Time Temperature Precipitation Wind Pressure Humidity
    00:00 -7°C° 0 mm 1 mps 633 mmHg 50%
    01:00 -7°C° 0 mm 1 mps 633 mmHg 52%
    02:00 -8°C° 0 mm 1 mps 633 mmHg 53%
    03:00 -8°C° 0 mm 1 mps 632 mmHg 55%
    04:00 -8°C° 0 mm 1 mps 632 mmHg 56%
    05:00 -8°C° 0 mm 1 mps 632 mmHg 57%
    06:00 -8°C° 0 mm 1 mps 632 mmHg 57%
    07:00 -8°C° 0 mm 1 mps 632 mmHg 58%
    08:00 -7°C° 0 mm 1 mps 632 mmHg 58%
    09:00 -6°C° 0 mm 1 mps 632 mmHg 59%
    10:00 -3°C° 0 mm 1 mps 632 mmHg 57%
    11:00 -2°C° 0 mm 1 mps 632 mmHg 55%
    12:00 -1°C° 0 mm 1 mps 632 mmHg 54%
    13:00 0°C° 0 mm 1 mps 632 mmHg 55%
    14:00 0°C° 0 mm 1 mps 631 mmHg 57%
    15:00 0°C° 0 mm 1 mps 631 mmHg 59%
    16:00 -2°C° 0 mm 1 mps 631 mmHg 60%
    17:00 -3°C° 0 mm 1 mps 631 mmHg 62%
    18:00 -6°C° 0 mm 1 mps 631 mmHg 63%
    19:00 -6°C° 0 mm 1 mps 631 mmHg 65%
    20:00 -6°C° 0 mm 1 mps 632 mmHg 66%
    21:00 -7°C° 0 mm 1 mps 632 mmHg 67%
    22:00 -7°C° 0 mm 1 mps 632 mmHg 70%
    23:00 -7°C° 0 mm 1 mps 632 mmHg 72%

    22 February, Friday

    Time Temperature Precipitation Wind Pressure Humidity
    00:00 -7°C° 0 mm 1 mps 632 mmHg 74%
    01:00 -8°C° 0 mm 1 mps 632 mmHg 75%
    02:00 -8°C° 0 mm 1 mps 632 mmHg 75%
    03:00 -8°C° 0 mm 1 mps 632 mmHg 76%
    04:00 -8°C° 0 mm 1 mps 631 mmHg 76%
    05:00 -8°C° 0 mm 1 mps 631 mmHg 76%
    06:00 -8°C° 0 mm 1 mps 631 mmHg 76%
    07:00 -8°C° 0 mm 1 mps 632 mmHg 76%
    08:00 -7°C° 0 mm 1 mps 632 mmHg 75%
    09:00 -6°C° 0 mm 1 mps 632 mmHg 75%
    10:00 -4°C° 0 mm 1 mps 632 mmHg 73%
    11:00 -2°C° 0 mm 1 mps 632 mmHg 71%
    12:00 -1°C° 0 mm 1 mps 632 mmHg 69%
    13:00 -1°C° 0 mm 1 mps 631 mmHg 70%
    14:00 -1°C° 0 mm 1 mps 631 mmHg 70%
    15:00 0°C° 0 mm 1 mps 631 mmHg 71%
    16:00 -2°C° 0 mm 1 mps 630 mmHg 72%
    17:00 -3°C° 0 mm 1 mps 630 mmHg 74%
    18:00 -4°C° 0 mm 1 mps 630 mmHg 75%
    19:00 -6°C° 0 mm 1 mps 630 mmHg 75%
    20:00 -6°C° 0 mm 1 mps 631 mmHg 75%
    21:00 -7°C° 0 mm 1 mps 631 mmHg 75%
    22:00 -7°C° 0 mm 1 mps 631 mmHg 75%
    23:00 -7°C° 0 mm 1 mps 631 mmHg 75%

    23 February, Saturday

    Time Temperature Precipitation Wind Pressure Humidity
    00:00 -7°C° 0 mm 1 mps 631 mmHg 76%
    01:00 -8°C° 0 mm 1 mps 631 mmHg 77%
    02:00 -8°C° 0 mm 1 mps 631 mmHg 77%
    03:00 -8°C° 0 mm 1 mps 631 mmHg 78%
    04:00 -8°C° 0 mm 1 mps 631 mmHg 78%
    05:00 -8°C° 0 mm 1 mps 631 mmHg 79%
    06:00 -8°C° 0 mm 1 mps 631 mmHg 79%
    07:00 -7°C° 0 mm 1 mps 631 mmHg 78%
    08:00 -6°C° 0 mm 1 mps 631 mmHg 77%
    09:00 -4°C° 0 mm 1 mps 631 mmHg 75%
    10:00 -5°C° 0 mm 2 mps 631 mmHg 74%
    11:00 -3°C° 0 mm 2 mps 631 mmHg 73%
    12:00 -2°C° 0 mm 3 mps 631 mmHg 71%
    13:00 -1°C° 0 mm 3 mps 631 mmHg 71%
    14:00 -1°C° 0 mm 3 mps 631 mmHg 71%
    15:00 0°C° 0 mm 3 mps 631 mmHg 70%
    16:00 -1°C° 0 mm 3 mps 631 mmHg 72%
    17:00 -2°C° 0 mm 3 mps 631 mmHg 74%
    18:00 -3°C° 0 mm 2 mps 631 mmHg 75%
    19:00 -4°C° 0 mm 2 mps 631 mmHg 75%
    20:00 -4°C° 0 mm 2 mps 631 mmHg 74%
    21:00 -3°C° 0 mm 1 mps 631 mmHg 74%
    22:00 -3°C° 0 mm 1 mps 631 mmHg 75%
    23:00 -3°C° 0 mm 1 mps 631 mmHg 75%

    24 February, Sunday

    Time Temperature Precipitation Wind Pressure Humidity
    00:00 -3°C° 0 mm 1 mps 631 mmHg 76%
    01:00 -3°C° 0 mm 1 mps 631 mmHg 77%
    02:00 -3°C° 0 mm 1 mps 631 mmHg 77%
    03:00 -3°C° 0 mm 1 mps 631 mmHg 78%
    04:00 -3°C° 0 mm 1 mps 631 mmHg 79%
    05:00 -3°C° 0 mm 1 mps 631 mmHg 80%
    06:00 -3°C° 0 mm 1 mps 631 mmHg 81%
    07:00 -4°C° 0 mm 2 mps 632 mmHg 79%
    08:00 -3°C° 0 mm 2 mps 632 mmHg 78%
    09:00 -2°C° 0 mm 3 mps 633 mmHg 77%
    10:00 -1°C° 0 mm 3 mps 633 mmHg 75%
    11:00 0°C° 0 mm 3 mps 633 mmHg 73%
    12:00 +1°C° 0 mm 3 mps 633 mmHg 71%
    13:00 +1°C° 0 mm 3 mps 633 mmHg 71%
    14:00 +2°C° 0 mm 3 mps 633 mmHg 71%
    15:00 +2°C° 0 mm 3 mps 632 mmHg 71%
    16:00 +1°C° 0 mm 3 mps 632 mmHg 72%
    17:00 0°C° 0 mm 3 mps 632 mmHg 73%
    18:00 -1°C° 0 mm 2 mps 632 mmHg 74%
    19:00 -2°C° 0 mm 2 mps 633 mmHg 74%
    20:00 -2°C° 0 mm 2 mps 633 mmHg 73%
    21:00 -3°C° 0 mm 2 mps 633 mmHg 72%
    22:00 -3°C° 0 mm 2 mps 633 mmHg 72%
    23:00 -2°C° 0 mm 1 mps 633 mmHg 72%
    Show more